Weather observations for the past three days for
Hastings, Hastings Municipal Airport
Metric (Imperial)
Date Time (cdt) Wind (kph) Vis. (km) Weather Sky Cond. Temperature (ºC) Relative Humidity Wind Chill (°C) Heat Index (°C) Pressure Precipitation (cm)
Air Dwpt 6 hour altimeter (cm) sea level (mb) 1 hr 3 hr 6 hr
Max. Min.
03 07:53 S 11 16.09 Fair CLR 23.3 17.2 69% 75.82 1008.5
03 06:53 S 13 16.09 Fair CLR 22.8 17.2 26.7 22.8 71% 75.79 1008.4
03 05:53 S 11 16.09 Fair CLR 23.3 17.2 69% 75.82 1008.4
03 04:53 S 13 16.09 Fair CLR 23.9 17.2 66% 25 75.82 1008.2
03 03:53 S 13 16.09 Fair CLR 25.6 17.2 60% 27 75.82 1008.3
03 02:53 S 17 16.09 Fair CLR 26.1 16.7 56% 27 75.82 1008.2
03 01:53 S 15 16.09 Fair CLR 26.1 16.7 56% 27 75.82 1008.3
03 00:53 S 15 16.09 Fair CLR 26.1 16.7 33.3 25.6 56% 27 75.82 1008.3
02 23:53 S 17 16.09 Fair CLR 26.7 16.7 54% 27 75.82 1008.5
02 22:53 S 17 16.09 Fair CLR 27.8 16.7 51% 28 75.79 1008.3
02 21:53 SE 19 16.09 Fair CLR 28.9 16.7 48% 29 75.79 1008.1
02 20:53 SE 19 16.09 Fair CLR 30.6 16.7 43% 31 75.74 1007.6
02 19:53 S 15 16.09 Fair CLR 32.2 16.7 39% 32 75.72 1007.1
02 18:53 S 13 16.09 Fair CLR 33.3 17.8 36.1 31.7 40% 34 75.72 1007.2
02 17:53 S 9 16.09 Fair CLR 34.4 18.3 38% 36 75.72 1007.3
02 16:53 S 15 16.09 Partly Cloudy SCT100 35.6 18.3 36% 37 75.77 1007.7
02 15:53 S 11 16.09 Fair CLR 35 19.4 40% 37 75.82 1008.5
02 14:53 S 15 16.09 Fair CLR 33.9 18.9 41% 36 75.9 1009.4
02 13:53 S 19 G 33 16.09 Fair CLR 32.8 18.3 42% 34 75.95 1010.0
02 12:53 S 15 16.09 Fair CLR 31.7 18.9 31.7 22.2 47% 33 75.97 1010.7
02 11:53 SW 13 16.09 Fair CLR 30 18.9 51% 31 76 1011.0
02 10:53 SW 17 G 30 16.09 Fair CLR 27.8 17.8 55% 29 76.02 1011.3
02 09:53 S 15 16.09 Fair CLR 26.1 17.2 58% 27 76 1011.2
02 08:53 S 9 16.09 Fair CLR 23.3 16.7 67% 76.02 1011.6
02 07:53 SW 9 16.09 Fair CLR 22.8 16.1 66% 76.02 1011.3
02 06:53 S 11 16.09 A Few Clouds FEW120 22.2 16.1 25 22.2 68% 76 1010.9
02 05:53 S 11 16.09 Fair CLR 22.2 16.1 68% 75.97 1010.6
02 04:53 SW 11 16.09 Fair CLR 22.2 15.6 66% 75.97 1010.7
02 03:53 S 13 16.09 A Few Clouds FEW120 22.8 15.6 64% 75.95 1010.4
02 02:53 S 13 16.09 Fair CLR 23.9 15.6 60% 25 75.95 1010.4
02 01:53 S 15 16.09 Fair CLR 24.4 15.6 58% 26 75.95 1010.4
02 00:53 S 13 16.09 Fair CLR 25 15.6 33.3 25 56% 26 75.95 1010.3
01 23:53 S 11 16.09 Fair CLR 25 16.1 58% 26 75.97 1010.7
01 22:53 S 11 16.09 Fair CLR 26.1 16.7 56% 27 75.97 1010.9
01 21:53 S 15 16.09 Fair CLR 27.8 17.8 55% 29 75.95 1010.4
01 20:53 S 11 16.09 Mostly Cloudy BKN110 30 18.9 51% 31 75.9 1009.8
01 19:53 S 9 16.09 Fair CLR 32.2 19.4 47% 34 75.87 1009.3
01 18:53 S 9 16.09 Fair CLR 33.3 20.6 33.9 30 47% 36 75.87 1009.2
01 17:53 S 9 16.09 Fair CLR 33.3 22.2 52% 38 75.92 1009.8
01 16:53 S 9 16.09 A Few Clouds FEW110 33.9 21.7 49% 38 75.95 1010.3
01 15:53 Vrbl 9 16.09 A Few Clouds FEW110 33.3 22.2 52% 38 76 1010.8
01 14:53 S 13 16.09 Fair CLR 32.2 21.7 54% 36 76.05 1011.5
01 13:53 S 13 16.09 Fair CLR 31.1 21.7 57% 34 76.1 1012.3
01 12:53 S 11 16.09 Fair CLR 30 21.7 30.6 20.6 61% 33 76.12 1012.9
01 11:53 Vrbl 11 16.09 Fair CLR 29.4 21.1 61% 32 76.12 1013.0
01 10:53 N 11 16.09 Fair CLR 27.2 21.7 72% 29 76.1 1012.7
01 09:53 N 9 16.09 Fair CLR 25 21.1 79% 26 76.1 1012.6
01 08:53 NW 13 16.09 Fair CLR 22.8 20 84% 76.1 1012.7
01 07:53 W 9 16.09 Fair CLR 21.7 18.3 81% 76.1 1012.8
01 06:53 Vrbl 6 16.09 Fair CLR 21.7 17.2 25 21.1 76% 76.1 1012.4
01 05:53 S 11 16.09 Fair CLR 23.3 17.8 71% 76.02 1011.2
01 04:53 SE 7 16.09 Fair CLR 24.4 17.8 67% 25 76.07 1011.8
01 03:53 SE 7 16.09 A Few Clouds FEW110 23.9 18.9 74% 25 76.07 1011.8
01 02:53 SE 9 16.09 Fair CLR 25 19.4 71% 26 76.07 1011.9
01 01:53 NE 7 16.09 Fair CLR 22.8 21.1 90% 76.1 1012.5
01 00:53 E 6 16.09 Fair CLR 23.3 21.1 29.4 23.3 88% 76.12 1012.9
31 23:53 NE 7 16.09 Fair CLR 23.3 21.1 88% 76.15 1013.5
31 22:53 E 6 16.09 Fair CLR 25 21.1 79% 26 76.15 1013.5
31 21:53 E 9 16.09 Fair CLR 25.6 21.1 76% 27 76.15 1013.6
31 20:53 E 11 16.09 Fair CLR 26.7 20 67% 28 76.1 1012.6
31 19:53 E 7 16.09 Fair CLR 28.3 20 61% 30 76.07 1012.4
31 18:53 E 11 16.09 Fair CLR 29.4 20.6 32.2 27.8 59% 32 76.1 1012.4
31 17:53 Calm 16.09 Fair CLR 31.7 17.8 43% 32 76.1 1012.3
31 16:53 Vrbl 6 16.09 Fair CLR 31.7 16.1 39% 32 76.15 1012.8
31 15:53 SW 11 16.09 Fair CLR 31.7 18.3 45% 33 76.17 1013.4
31 14:53 S 9 16.09 Fair CLR 30.6 18.3 48% 32 76.2 1013.8
31 13:53 Calm 16.09 Fair CLR 29.4 18.3 51% 30 76.23 1014.2
31 12:53 S 6 16.09 Fair CLR 28.3 18.9 28.3 20.6 57% 30 76.25 1014.5
31 11:53 Calm 16.09 Fair CLR 26.7 18.9 62% 28 76.23 1014.5
31 10:53 NE 11 16.09 Fair CLR 25 18.3 66% 26 76.2 1014.0
31 09:53 N 15 16.09 Fair CLR 23.3 17.8 71% 76.17 1013.7
Date Time (cdt) Wind (kph) Vis. (km) Weather Sky Cond. Air Dwpt Max. Min. Relative Humidity Wind Chill (°C) Heat Index (°C) altimeter (cm) sea level (mb) 1 hr 3 hr 6 hr
6 hour
Temperature (ºC) Pressure Precipitation (cm)